[[{"header":{"parameterUnit":"m.s-1","parameterCategory":2,"la1":30.2991,"la2":30.254,"lo1":-89.0895,"lo2":-89.0444,"dy":0.0017,"dx":0.0017,"nx":28,"ny":28,"refTime":"2025-04-26T09:00:00:Z","depth":"0","parameterNumber":2,"parameterNumberName":"U-component_of_CURRENTS"},"data":[0,0,0,0,0,0,0,0,0,0,0,0,0,0,0,0,0,0,0,0,0,0,0,0,0,0,0,0,0,0,0,0,0,0,0,0,0,0,0,0,0,0,0,0,0,0,0,0,0,0,0,0,0,0,0,0,0,0,0.2799,0.28,0,0.2872,0.2872,0.2873,0.2857,0.2856,0.2856,0.2855,0.2855,0.2856,0.2857,0,0,0,0,0,0,0,0,0,0,0,0,0,0.2644,0.2646,0.2799,0.2801,0.2802,0.2872,0.2872,0.2873,0.2857,0.2856,0.2855,0.2854,0.2855,0.2856,0.2857,0,0,0,0,0,0,0,0,0,0,0,0,0,0.2708,0.2647,0.2799,0.2807,0.2808,0.2872,0.2872,0.2873,0.2858,0.2856,0.2855,0.2854,0.2855,0.2856,0.2857,0.2891,0,0,0.2861,0.2861,0,0,0,0,0,0,0,0,0.2705,0.2713,0.2804,0.2806,0.2808,0.2859,0.2818,0.2877,0.2858,0.2833,0.2855,0.2853,0.2854,0.2856,0.2865,0.2891,0.2891,0.2861,0.2862,0.2862,0.2863,0,0,0,0,0,0,0,0.27,0.271,0.2822,0.2806,0.2809,0.2806,0.2813,0.2829,0.2845,0.2835,0.2836,0.2853,0.2854,0.2864,0.2865,0.2891,0.2861,0.2862,0.2863,0.2863,0.2994,0.2996,0,0,0,0,0,0,0.2704,0.2706,0.282,0.2825,0.2758,0.281,0.2818,0.284,0.2846,0.2848,0.2854,0.2852,0.2863,0.2864,0.2865,0.296,0.2862,0.2863,0.2864,0.2991,0.2994,0.2997,0,0,0,0,0,0,0.2701,0.2714,0.2817,0.2771,0.2785,0.2815,0.2839,0.2842,0.2858,0.2862,0.2861,0.2868,0.2862,0.2863,0.2908,0.2957,0.2864,0.2865,0.2988,0.2992,0.2996,0.3113,0,0,0,0,0,0,0.2696,0.2712,0.2728,0.2772,0.2788,0.2875,0.2841,0.2844,0.2873,0.2871,0.2874,0.2873,0.2861,0.2906,0.2909,0.2957,0.2866,0.2984,0.299,0.2995,0.3106,0.3121,0.3134,0,0,0,0,0,0.269,0.2728,0.2728,0.2743,0.2809,0.2877,0.2886,0.2897,0.2875,0.2902,0.2908,0.2873,0.294,0.291,0.2912,0.2962,0.2982,0.2988,0.2994,0.31,0.3118,0.3133,0,0,0,0,0,0,0.2668,0.2732,0.2733,0.2786,0.2834,0.2877,0.2906,0.2908,0.2933,0.2927,0.2911,0.2912,0.2973,0.2953,0.292,0.3016,0.2954,0.2961,0.3034,0.3051,0.3064,0.3071,0.2867,0,0,0,0,0,0.2673,0.2717,0.2772,0.2816,0.2842,0.2872,0.2898,0.2911,0.2942,0.295,0.2957,0.2968,0.3002,0.3013,0.3036,0.3086,0.3086,0.3119,0.3133,0.3145,0.3153,0.3214,0.3235,0.3017,0.3017,0.3017,0,0,0.2676,0.2718,0.2742,0.2815,0.2848,0.2906,0.2884,0.294,0.2982,0.2948,0.3005,0.3021,0.3028,0.3094,0.3117,0.308,0.3209,0.3152,0.3162,0.3165,0.3223,0.3244,0.3263,0.3022,0.3021,0.302,0,0,0.272,0.2746,0.28,0.2846,0.2913,0.2938,0.2958,0.3013,0.3029,0.309,0.3085,0.3139,0.3167,0.3203,0.3216,0.3321,0.3286,0.3319,0.3389,0.3449,0.3467,0.3483,0.3518,0.3536,0.3319,0.3319,0.3319,0,0.2721,0.2793,0.2827,0.2893,0.2933,0.2956,0.3018,0.3052,0.3113,0.3139,0.3119,0.3214,0.3225,0.3315,0.3358,0.3354,0.3367,0.3324,0.3468,0.3483,0.3498,0.3529,0.3548,0.3325,0.3324,0.3324,0.3323,0,0.2808,0.2862,0.2902,0.2987,0.3035,0.3097,0.3148,0.3194,0.3207,0.3237,0.3325,0.3359,0.3406,0.3433,0.3427,0.3543,0.3513,0.3484,0.3423,0.3527,0.3553,0.357,0.3334,0.3332,0.333,0.3329,0,0,0.2826,0.2938,0.2953,0.2993,0.3086,0.3133,0.3212,0.3289,0.333,0.3393,0.3456,0.3548,0.3553,0.3572,0.3585,0.3649,0.3773,0.3613,0.3614,0.3645,0.3894,0.3834,0.3846,0.3767,0.377,0.3773,0.3874,0,0.2883,0.2997,0.3045,0.3145,0.3204,0.3248,0.3313,0.3381,0.3422,0.3489,0.3546,0.3609,0.3606,0.3634,0.3707,0.3754,0.3822,0.3747,0.3791,0.3793,0.3725,0.3866,0.3756,0.3834,0.389,0.3893,0.3895,0,0.2957,0.3021,0.3119,0.3209,0.3238,0.3295,0.3385,0.345,0.3543,0.3573,0.365,0.3676,0.3794,0.3761,0.3909,0.3858,0.3893,0.3926,0.3929,0.3842,0.3765,0.3739,0.3862,0.3771,0.3921,0.3919,0.3917,0,0.2948,0.3071,0.3139,0.3176,0.3285,0.3328,0.3384,0.3474,0.352,0.3627,0.3668,0.3781,0.3842,0.3921,0.3987,0.3955,0.413,0.4081,0.4065,0.4059,0.3959,0.3939,0.3995,0.4196,0.4196,0.4195,0.4195,0,0.2989,0.3044,0.3135,0.3175,0.3237,0.3324,0.3387,0.3456,0.3554,0.3611,0.3704,0.3775,0.3889,0.3985,0.4029,0.4108,0.4163,0.4114,0.4102,0.3996,0.3979,0.3884,0.3842,0.4199,0.4198,0.4198,0.4197,0,0.2965,0.3035,0.3104,0.3207,0.3233,0.3274,0.3363,0.3407,0.3519,0.3601,0.3639,0.3798,0.3922,0.4018,0.4152,0.4157,0.4127,0.424,0.4098,0.4068,0.3933,0.3901,0.379,0.3679,0.4238,0.4238,0.4237,0,0.2965,0.3002,0.3087,0.3104,0.3145,0.3208,0.3242,0.3363,0.3412,0.3604,0.3643,0.3808,0.3902,0.4086,0.4134,0.4212,0.4101,0.4144,0.4069,0.3947,0.3904,0.3731,0.3633,0.3987,0.3985,0.3983,0.3981,0,0.2939,0.296,0.2997,0.3034,0.3069,0.3104,0.3175,0.321,0.3359,0.3447,0.3592,0.3699,0.3897,0.3947,0.4058,0.4091,0.395,0.4101,0.4029,0.3772,0.3537,0.3415,0.3881,0.3963,0.3965,0.3966,0.3967,0.3968,0.2886,0.2884,0.292,0.2941,0.2976,0.2996,0.2987,0.3082,0.3155,0.3277,0.3459,0.3568,0.3759,0.3906,0.3904,0.3851,0.3813,0.3779,0.3772,0.3622,0.3451,0.3867,0.3894,0.3895,0.3896,0.3897,0.3898,0,0.281,0.281,0.2825,0.2839,0.2831,0.2886,0.2926,0.2905,0.2945,0.3114,0.3232,0.3392,0.3495,0.3606,0.3673,0.3563,0.3389,0.348,0.3236,0.3172,0.3612,0.3537,0.3421,0.3422,0.3422,0.3422,0.3422,0.3422,0.2766,0.2739,0.2739,0.269,0.2695,0.2638,0.2631,0.2638,0.2713,0.2789,0.287,0.3013,0.3301,0.3505,0.3449,0.3361,0.3094,0.2968,0.2933,0.3287,0.3314,0.3339,0.3259,0.3087,0.3087,0.236,0.2355,0.2351]},{"header":{"parameterUnit":"m.s-1","parameterCategory":2,"la1":30.2991,"la2":30.254,"lo1":-89.0895,"lo2":-89.0444,"dy":0.0017,"dx":0.0017,"nx":28,"ny":28,"refTime":"2025-04-26T09:00:00:Z","depth":"0","parameterNumber":3,"parameterNumberName":"V-component_of_CURRENTS"},"data":[0,0,0,0,0,0,0,0,0,0,0,0,0,0,0,0,0,0,0,0,0,0,0,0,0,0,0,0,0,0,0,0,0,0,0,0,0,0,0,0,0,0,0,0,0,0,0,0,0,0,0,0,0,0,0,0,0,0,0.0388,0.0387,0,0.0299,0.0298,0.0297,0.0224,0.0223,0.0223,0.0223,0.0063,0.0059,0.0056,0,0,0,0,0,0,0,0,0,0,0,0,0,0.0391,0.0392,0.0388,0.0387,0.0386,0.03,0.0298,0.0296,0.0224,0.0223,0.0223,0.0222,0.0064,0.006,0.0055,0,0,0,0,0,0,0,0,0,0,0,0,0,0.0352,0.0392,0.0388,0.0342,0.0338,0.03,0.0298,0.0296,0.0224,0.0223,0.0223,0.0222,0.0066,0.006,0.0055,0.0032,0,0,0.0037,0.0034,0,0,0,0,0,0,0,0,0.0354,0.0351,0.035,0.0345,0.034,0.0275,0.0241,0.0205,0.0224,0.0263,0.0222,0.0222,0.013,0.0119,0.01,0.0024,0.0018,0.0036,0.0033,0.003,0.0029,0,0,0,0,0,0,0,0.0357,0.0354,0.0349,0.0349,0.0343,0.0291,0.0286,0.0233,0.0197,0.026,0.0255,0.0251,0.0127,0.0106,0.0095,0.0015,0.0037,0.0031,0.0028,0.0026,-0.0119,-0.0119,0,0,0,0,0,0,0.0382,0.0357,0.0352,0.0347,0.035,0.0293,0.0286,0.0294,0.0199,0.0186,0.0252,0.0248,0.0116,0.0102,0.0089,0.0065,0.003,0.0025,0.0022,-0.0119,-0.0119,-0.0119,0,0,0,0,0,0,0.0382,0.0383,0.0355,0.0352,0.0345,0.0294,0.0303,0.0292,0.0271,0.0195,0.0179,0.0242,0.0115,0.0097,0.0048,0.0058,0.0022,0.0017,-0.0118,-0.0119,-0.0119,0.001,0,0,0,0,0,0,0.0383,0.0384,0.0394,0.0354,0.0347,0.0347,0.0304,0.0291,0.0271,0.0266,0.0181,0.0166,0.0113,0.0057,0.0042,0.0049,0.0013,-0.0118,-0.0118,-0.0119,0.0007,0.0014,0.0021,0,0,0,0,0,0.0384,0.0412,0.0395,0.0394,0.0365,0.0349,0.034,0.0297,0.0272,0.0273,0.0212,0.0168,0.0041,0.0053,0.0035,0.0041,-0.0117,-0.0118,-0.0119,0.0003,0.0013,0.0021,0,0,0,0,0,0,0.0428,0.0407,0.0387,0.041,0.0385,0.0338,0.0337,0.0304,0.0257,0.0249,0.0169,0.015,0.0109,0.0052,0.0066,-0.0008,-0.0048,-0.0052,0.0051,0.0059,0.0066,0.0103,0.0008,0,0,0,0,0,0.0443,0.0453,0.0422,0.044,0.0432,0.0383,0.0369,0.0343,0.0299,0.0277,0.022,0.0151,0.0091,0.0059,0.0002,-0.0034,-0.0074,-0.0048,-0.004,-0.0033,-0.0018,-0.0073,-0.0068,-0.0122,-0.0122,-0.0122,0,0,0.0466,0.0455,0.0461,0.0448,0.0424,0.0427,0.0372,0.0366,0.0362,0.0267,0.0244,0.0178,0.0086,0.0049,0.0024,0.0004,-0.0038,-0.0034,-0.0027,-0.0016,-0.0073,-0.0068,-0.0063,-0.0123,-0.0123,-0.0123,0,0,0.0519,0.0508,0.0531,0.0518,0.0495,0.0466,0.0468,0.0427,0.0401,0.0373,0.0299,0.0246,0.016,0.0102,0.0057,0.0066,0.0004,0.0036,0.0104,0.005,0.0055,0.0059,0.0034,0.0035,0.0038,0.0038,0.0039,0,0.0546,0.0571,0.0535,0.0553,0.055,0.049,0.0512,0.048,0.0428,0.0411,0.0384,0.0261,0.0188,0.0132,0.0133,0.0086,0.0053,0.0087,0.0064,0.0066,0.0068,0.0041,0.0041,0.0044,0.0044,0.0043,0.0043,0,0.0611,0.0628,0.0644,0.0643,0.0635,0.0647,0.0605,0.059,0.0551,0.0513,0.0461,0.0367,0.0294,0.0257,0.0198,0.0166,0.0139,0.0086,0.0056,0.0082,0.0051,0.0048,0.0053,0.0051,0.0049,0.0048,0,0,0.0676,0.0687,0.0691,0.0707,0.0684,0.069,0.0685,0.0662,0.0662,0.0602,0.0591,0.0487,0.0436,0.0381,0.0296,0.0249,0.0234,0.0183,0.0177,0.0185,0.0139,0.012,0.0114,0.0178,0.0178,0.0178,0.0121,0,0.0733,0.0789,0.0773,0.0821,0.0845,0.0797,0.0802,0.0773,0.073,0.0706,0.0607,0.0564,0.048,0.045,0.039,0.0268,0.0227,0.0255,0.0089,0.0085,0.0086,0.011,0.0118,0.0067,0.0117,0.0117,0.0116,0,0.0798,0.0827,0.0888,0.0912,0.0918,0.0937,0.0932,0.0929,0.0872,0.0834,0.0774,0.0696,0.0616,0.054,0.0379,0.0401,0.0289,0.0198,0.0192,0.0129,0.006,0.004,0.0058,-0.0118,0.011,0.0111,0.0111,0,0.086,0.0904,0.0956,0.0966,0.0985,0.1004,0.1008,0.0974,0.0984,0.092,0.0919,0.08,0.0756,0.0602,0.0415,0.0398,0.0241,0.0185,0.0069,0.0067,0.0018,0.0012,-0.0133,0.008,0.008,0.008,0.0081,0,0.0927,0.0971,0.0996,0.1031,0.1097,0.1082,0.1134,0.1111,0.1098,0.1121,0.0998,0.1,0.077,0.065,0.0463,0.0268,0.0275,0.0098,0.0051,0.0063,0.0062,-0.0141,-0.0241,0.0078,0.0079,0.0079,0.008,0,0.0992,0.1006,0.1076,0.1116,0.1134,0.1184,0.1232,0.1266,0.1237,0.1264,0.1256,0.1157,0.1001,0.0762,0.0515,0.035,0.0044,0.0069,0.0116,0.0075,-0.0186,-0.0278,-0.0473,-0.0549,-0.0048,-0.0049,-0.005,0,0.1032,0.1076,0.1146,0.1192,0.1218,0.1283,0.1331,0.1333,0.1375,0.1371,0.1401,0.128,0.1216,0.086,0.0513,0.0193,0.0011,0.0008,-0.0032,-0.0185,-0.0323,-0.0392,-0.0446,-0.0042,-0.0042,-0.0043,-0.0043,0,0.1112,0.1134,0.119,0.1285,0.1352,0.1426,0.1497,0.1556,0.1563,0.1603,0.1649,0.1615,0.1267,0.0956,0.0503,0.0276,-0.0108,-0.001,-0.0196,-0.0342,-0.0401,-0.0501,-0.0004,-0.0047,-0.0047,-0.0046,-0.0046,-0.0046,0.1166,0.1218,0.1288,0.1375,0.1458,0.1556,0.1629,0.1719,0.1822,0.189,0.1853,0.1829,0.1365,0.0756,0.0423,-0.0161,-0.0165,-0.0319,-0.0418,-0.0472,-0.0551,-0.0041,-0.0126,-0.0126,-0.0126,-0.0126,-0.0126,0,0.1216,0.1273,0.1367,0.1472,0.157,0.16,0.1728,0.1814,0.1957,0.2034,0.2082,0.1837,0.1286,0.0706,-0.0086,-0.0486,-0.063,-0.0706,-0.0814,-0.0851,-0.0423,-0.0428,-0.0549,-0.0549,-0.0548,-0.0548,-0.0548,-0.0548,0.1241,0.1328,0.1372,0.1536,0.1618,0.1749,0.1824,0.1972,0.2066,0.2172,0.2156,0.2108,0.1662,0.0271,-0.0649,-0.0861,-0.1148,-0.1225,-0.1356,-0.1082,-0.1054,-0.1027,-0.1055,-0.1306,-0.1307,-0.1728,-0.1733,-0.1736]}],[{"header":{"parameterUnit":"m.s-1","parameterCategory":2,"la1":30.2991,"la2":30.254,"lo1":-89.0895,"lo2":-89.0444,"dy":0.0017,"dx":0.0017,"nx":28,"ny":28,"refTime":"2025-04-26T09:00:00:Z","depth":"2","parameterNumber":2,"parameterNumberName":"U-component_of_CURRENTS"},"data":[0,0,0,0,0,0,0,0,0,0,0,0,0,0,0,0,0,0,0,0,0,0,0,0,0,0,0,0,0,0,0,0,0,0,0,0,0,0,0,0,0,0,0,0,0,0,0,0,0,0,0,0,0,0,0,0,0,0,0.2636,0.2637,0,0.2634,0.2633,0.2632,0.2614,0.2615,0.2616,0.2616,0.2654,0.2654,0.2655,0,0,0,0,0,0,0,0,0,0,0,0,0,0.2546,0.2547,0.2636,0.2637,0.2638,0.2634,0.2633,0.2632,0.2614,0.2615,0.2616,0.2617,0.2654,0.2654,0.2655,0,0,0,0,0,0,0,0,0,0,0,0,0,0.2556,0.2548,0.2636,0.2639,0.2641,0.2635,0.2633,0.2631,0.2613,0.2615,0.2616,0.2617,0.2654,0.2654,0.2655,0.2631,0,0,0.2656,0.2656,0,0,0,0,0,0,0,0,0.2555,0.2557,0.2638,0.2639,0.2641,0.2638,0.2616,0.2638,0.2613,0.2609,0.2616,0.2618,0.2661,0.2661,0.2637,0.2633,0.2635,0.2656,0.2656,0.2656,0.2656,0,0,0,0,0,0,0,0.2555,0.2557,0.2621,0.2639,0.2641,0.2616,0.2618,0.2618,0.2617,0.2609,0.2612,0.2634,0.266,0.2636,0.2638,0.2635,0.2656,0.2656,0.2656,0.2656,0.27,0.2701,0,0,0,0,0,0,0.2586,0.2557,0.2621,0.2622,0.2616,0.2618,0.2619,0.2626,0.2617,0.262,0.2633,0.2633,0.2635,0.2637,0.2639,0.2701,0.2656,0.2656,0.2656,0.2699,0.27,0.2701,0,0,0,0,0,0,0.2584,0.2591,0.2621,0.2601,0.2605,0.262,0.2627,0.2626,0.2647,0.2637,0.2638,0.2662,0.2636,0.2639,0.2645,0.2699,0.2656,0.2657,0.2698,0.2699,0.27,0.2767,0,0,0,0,0,0,0.2581,0.259,0.2609,0.2603,0.2608,0.2617,0.2627,0.2625,0.2663,0.2664,0.2662,0.2663,0.2637,0.2644,0.2645,0.2699,0.2657,0.2696,0.2698,0.27,0.2764,0.2771,0.2777,0,0,0,0,0,0.2577,0.2585,0.2609,0.2619,0.2633,0.2618,0.2615,0.2621,0.2664,0.2649,0.2655,0.2666,0.2658,0.2644,0.2645,0.2701,0.2696,0.2698,0.27,0.2761,0.2769,0.2777,0,0,0,0,0,0,0.2537,0.2586,0.2611,0.2631,0.2634,0.2621,0.2627,0.265,0.2643,0.2667,0.266,0.2659,0.2684,0.2679,0.2665,0.2717,0.2687,0.2689,0.2733,0.2741,0.2748,0.2749,0.2657,0,0,0,0,0,0.2549,0.2577,0.2601,0.2616,0.2629,0.2644,0.2652,0.2662,0.2662,0.2663,0.2676,0.2689,0.2685,0.2704,0.2687,0.2718,0.273,0.2759,0.2766,0.2771,0.2772,0.2829,0.2842,0.2708,0.2708,0.2708,0,0,0.2549,0.2573,0.2596,0.2614,0.2623,0.2643,0.2647,0.2667,0.269,0.267,0.271,0.2706,0.2692,0.2707,0.2725,0.2721,0.2816,0.2774,0.2779,0.2777,0.2833,0.2846,0.2858,0.271,0.2709,0.2709,0,0,0.2538,0.2577,0.2596,0.2622,0.266,0.2657,0.2683,0.2704,0.2715,0.273,0.2739,0.2783,0.2763,0.279,0.2792,0.2837,0.2835,0.2829,0.2882,0.2938,0.295,0.296,0.2998,0.3011,0.2849,0.285,0.285,0,0.2557,0.2571,0.2592,0.2625,0.2661,0.2681,0.271,0.2714,0.2739,0.2761,0.275,0.2787,0.2811,0.2854,0.2864,0.2862,0.2857,0.2855,0.2949,0.2959,0.2969,0.3004,0.3018,0.2853,0.2853,0.2852,0.2852,0,0.2543,0.2597,0.2609,0.2667,0.2687,0.2716,0.2747,0.2771,0.2799,0.2819,0.286,0.2867,0.2903,0.2923,0.29,0.2988,0.295,0.2939,0.2933,0.2987,0.302,0.3034,0.2858,0.2857,0.2856,0.2855,0,0,0.2496,0.2594,0.2604,0.2655,0.2728,0.2731,0.2781,0.2811,0.286,0.288,0.2934,0.2964,0.2995,0.3,0.3013,0.3064,0.3158,0.3024,0.3025,0.3067,0.3245,0.3195,0.3204,0.3138,0.3141,0.3143,0.3243,0,0.2491,0.2573,0.2603,0.2676,0.273,0.278,0.2817,0.2863,0.2888,0.2942,0.2983,0.3029,0.3015,0.3047,0.3098,0.3139,0.3191,0.3129,0.318,0.3182,0.3137,0.3218,0.2988,0.3055,0.3256,0.3258,0.326,0,0.247,0.2527,0.2616,0.2718,0.274,0.2771,0.2842,0.2883,0.2965,0.2992,0.3054,0.3078,0.3184,0.3148,0.3261,0.3203,0.323,0.3249,0.3253,0.319,0.3156,0.3031,0.3071,0.3282,0.328,0.3278,0.3277,0,0.2425,0.2535,0.2604,0.2654,0.276,0.2785,0.2821,0.2906,0.2947,0.3046,0.3092,0.3178,0.3245,0.3287,0.3344,0.3304,0.3429,0.3403,0.3378,0.3374,0.3184,0.3159,0.3475,0.3475,0.3475,0.3475,0.3474,0,0.2427,0.2481,0.2594,0.2635,0.2684,0.2776,0.2821,0.2878,0.2977,0.3031,0.3129,0.318,0.3275,0.3348,0.3372,0.3423,0.3476,0.3403,0.3408,0.32,0.3177,0.3367,0.3353,0.3478,0.3478,0.3477,0.3476,0,0.2399,0.2487,0.2549,0.2645,0.2676,0.2709,0.2798,0.2835,0.2955,0.3031,0.3073,0.3215,0.3322,0.3394,0.3492,0.3481,0.3529,0.3524,0.3266,0.3239,0.3425,0.3413,0.3528,0.3528,0.3527,0.3527,0.3526,0,0.2409,0.2443,0.2531,0.2541,0.2578,0.2644,0.2684,0.2805,0.2849,0.3029,0.3057,0.3212,0.3282,0.3428,0.345,0.3509,0.3534,0.3307,0.3216,0.3443,0.3436,0.3425,0.3415,0.2991,0.2987,0.2983,0.298,0,0.237,0.2393,0.2428,0.2471,0.2497,0.2535,0.2602,0.2636,0.2781,0.2867,0.2982,0.3071,0.3238,0.3209,0.3301,0.3294,0.3284,0.3231,0.3555,0.3013,0.2945,0.2935,0.2941,0.2945,0.2948,0.2951,0.2953,0.2954,0.2307,0.2306,0.2342,0.2363,0.2396,0.2409,0.2401,0.2483,0.2551,0.2655,0.281,0.2879,0.2979,0.3017,0.2958,0.2934,0.3153,0.3022,0.303,0.3044,0.2964,0.2898,0.2874,0.2877,0.2879,0.2881,0.2883,0,0.2212,0.222,0.2229,0.2236,0.2222,0.2298,0.233,0.2302,0.233,0.2477,0.2568,0.2452,0.2491,0.2576,0.2508,0.2549,0.2488,0.2437,0.2328,0.2368,0.2403,0.2283,0.2016,0.2013,0.2009,0.2006,0,0,0.214,0.2108,0.2113,0.2064,0.2083,0.2044,0.204,0.203,0.2086,0.2098,0.2148,0.2382,0.2524,0.2216,0.2217,0.2094,0.2195,0.2021,0.2735,0.2647,0.2676,0.2782,0.2652,0,0,0,0,0]},{"header":{"parameterUnit":"m.s-1","parameterCategory":2,"la1":30.2991,"la2":30.254,"lo1":-89.0895,"lo2":-89.0444,"dy":0.0017,"dx":0.0017,"nx":28,"ny":28,"refTime":"2025-04-26T09:00:00:Z","depth":"2","parameterNumber":3,"parameterNumberName":"V-component_of_CURRENTS"},"data":[0,0,0,0,0,0,0,0,0,0,0,0,0,0,0,0,0,0,0,0,0,0,0,0,0,0,0,0,0,0,0,0,0,0,0,0,0,0,0,0,0,0,0,0,0,0,0,0,0,0,0,0,0,0,0,0,0,0,-0.031,-0.0311,0,-0.0349,-0.0349,-0.0349,-0.0391,-0.0392,-0.0393,-0.0394,-0.0538,-0.0541,-0.0544,0,0,0,0,0,0,0,0,0,0,0,0,0,-0.0253,-0.0254,-0.031,-0.0311,-0.0312,-0.0349,-0.0349,-0.0349,-0.0391,-0.0392,-0.0394,-0.0395,-0.0538,-0.0541,-0.0544,0,0,0,0,0,0,0,0,0,0,0,0,0,-0.0277,-0.0254,-0.031,-0.0343,-0.0346,-0.0349,-0.0349,-0.0349,-0.039,-0.0392,-0.0394,-0.0396,-0.0537,-0.054,-0.0544,-0.0533,0,0,-0.0557,-0.0559,0,0,0,0,0,0,0,0,-0.0276,-0.0278,-0.0337,-0.034,-0.0345,-0.0373,-0.0382,-0.0418,-0.039,-0.0367,-0.0394,-0.0397,-0.0496,-0.0503,-0.0496,-0.054,-0.0546,-0.0557,-0.056,-0.0561,-0.0563,0,0,0,0,0,0,0,-0.0274,-0.0277,-0.0319,-0.0338,-0.0343,-0.0349,-0.0354,-0.0388,-0.0417,-0.0369,-0.0374,-0.0388,-0.0498,-0.0491,-0.05,-0.0548,-0.0557,-0.0561,-0.0563,-0.0565,-0.0625,-0.0624,0,0,0,0,0,0,-0.0282,-0.0275,-0.0318,-0.0321,-0.0321,-0.0349,-0.0354,-0.0356,-0.0415,-0.0427,-0.0386,-0.039,-0.0484,-0.0495,-0.0505,-0.0523,-0.0561,-0.0565,-0.0568,-0.0626,-0.0625,-0.0624,0,0,0,0,0,0,-0.028,-0.0284,-0.0316,-0.0305,-0.031,-0.0349,-0.0351,-0.0356,-0.0371,-0.0428,-0.0441,-0.0398,-0.0485,-0.05,-0.0526,-0.0529,-0.0567,-0.0571,-0.0627,-0.0626,-0.0624,-0.0542,0,0,0,0,0,0,-0.0278,-0.0283,-0.0285,-0.0305,-0.0312,-0.0305,-0.035,-0.0356,-0.0379,-0.0384,-0.0442,-0.0456,-0.0488,-0.0519,-0.053,-0.0535,-0.0574,-0.0628,-0.0626,-0.0625,-0.0546,-0.0538,-0.0532,0,0,0,0,0,-0.0275,-0.0254,-0.0284,-0.029,-0.0313,-0.0305,-0.0306,-0.0337,-0.0378,-0.0361,-0.0404,-0.0455,-0.0518,-0.0521,-0.0534,-0.0541,-0.0629,-0.0627,-0.0625,-0.0549,-0.054,-0.0532,0,0,0,0,0,0,-0.022,-0.0258,-0.0291,-0.0283,-0.0296,-0.0314,-0.0304,-0.0341,-0.0359,-0.0373,-0.0437,-0.0451,-0.0476,-0.0514,-0.0517,-0.0552,-0.0585,-0.0586,-0.0523,-0.0515,-0.0508,-0.0443,-0.0577,0,0,0,0,0,-0.0215,-0.0216,-0.025,-0.0243,-0.0247,-0.0284,-0.029,-0.0311,-0.0335,-0.0346,-0.0392,-0.044,-0.0472,-0.0499,-0.0525,-0.0544,-0.0567,-0.0559,-0.0551,-0.0545,-0.0499,-0.054,-0.0532,-0.0618,-0.0618,-0.0618,0,0,-0.0201,-0.0216,-0.0223,-0.0234,-0.0246,-0.0221,-0.0288,-0.0286,-0.0271,-0.036,-0.0354,-0.0414,-0.0469,-0.048,-0.0498,-0.0519,-0.0536,-0.0543,-0.0537,-0.0494,-0.0537,-0.0529,-0.0522,-0.0617,-0.0617,-0.0617,0,0,-0.0141,-0.0176,-0.0149,-0.0152,-0.0169,-0.0181,-0.0185,-0.0211,-0.0226,-0.0227,-0.0296,-0.0346,-0.0391,-0.0429,-0.0457,-0.0427,-0.0492,-0.0459,-0.0377,-0.0419,-0.0412,-0.0406,-0.0434,-0.0432,-0.0462,-0.0462,-0.0461,0,-0.0131,-0.0091,-0.0137,-0.0099,-0.0094,-0.016,-0.0118,-0.0128,-0.0162,-0.0173,-0.021,-0.0291,-0.0354,-0.038,-0.0366,-0.0411,-0.0437,-0.0409,-0.0408,-0.0403,-0.0398,-0.0429,-0.0427,-0.0457,-0.0458,-0.0458,-0.0459,0,-0.0038,-0.0014,0.001,0.003,0.0034,0.0062,0.0032,0.0027,-0.0016,-0.0043,-0.0081,-0.016,-0.0209,-0.0256,-0.0295,-0.0308,-0.0338,-0.0392,-0.0427,-0.0384,-0.042,-0.0419,-0.0451,-0.0453,-0.0454,-0.0455,0,0,0.0004,0.0058,0.0066,0.0096,0.0101,0.0116,0.0144,0.0147,0.0149,0.0099,0.0098,0.0025,-0.0046,-0.0078,-0.0172,-0.0208,-0.0218,-0.027,-0.0275,-0.029,-0.0294,-0.0309,-0.031,-0.0278,-0.0277,-0.0276,-0.0336,0,0.0088,0.0188,0.0188,0.0273,0.0322,0.0276,0.031,0.0293,0.0256,0.024,0.0142,0.011,0.0026,-0.0016,-0.006,-0.0178,-0.0208,-0.0194,-0.0337,-0.034,-0.0353,-0.0307,-0.0272,-0.0322,-0.0336,-0.0336,-0.0336,0,0.0197,0.0243,0.0345,0.0397,0.0409,0.0443,0.0455,0.0475,0.0433,0.0397,0.034,0.0259,0.0196,0.0112,-0.0023,-0.0011,-0.0117,-0.0209,-0.0216,-0.0244,-0.0352,-0.0365,-0.032,-0.0335,-0.0335,-0.0335,-0.0335,0,0.0273,0.036,0.0443,0.046,0.0504,0.0526,0.0541,0.0521,0.0537,0.0491,0.0483,0.0386,0.0333,0.0207,0.0028,0.0003,-0.0119,-0.0198,-0.0306,-0.0309,-0.0308,-0.0313,-0.0266,-0.0266,-0.0265,-0.0265,-0.0265,0,0.0377,0.0442,0.0484,0.0519,0.06,0.0603,0.0661,0.0649,0.0646,0.0672,0.0568,0.0556,0.0358,0.0252,0.0086,-0.0089,-0.008,-0.0252,-0.0313,-0.0281,-0.0282,-0.0317,-0.0322,-0.0268,-0.0267,-0.0267,-0.0266,0,0.0457,0.0493,0.0575,0.0618,0.0644,0.0691,0.0743,0.0779,0.0767,0.0795,0.0791,0.0694,0.056,0.0358,0.014,-0.0014,-0.0191,-0.0261,-0.0198,-0.0249,-0.0367,-0.0367,-0.0373,-0.0374,-0.0375,-0.0375,-0.0376,0,0.0512,0.0564,0.0632,0.0671,0.0692,0.0763,0.0817,0.0835,0.0874,0.0877,0.09,0.0796,0.0726,0.0419,0.0137,-0.0131,-0.0184,-0.028,-0.0319,-0.0312,-0.0372,-0.0371,-0.0371,-0.0299,-0.0299,-0.0299,-0.0299,0,0.0573,0.0589,0.0637,0.073,0.0791,0.0872,0.0946,0.1003,0.1031,0.1059,0.1078,0.1034,0.0754,0.0494,0.0133,-0.0051,-0.0232,-0.0286,-0.0293,-0.0274,-0.0246,-0.0304,-0.0305,-0.0297,-0.0297,-0.0297,-0.0297,-0.0297,0.0595,0.0631,0.069,0.0782,0.0861,0.0966,0.1046,0.1124,0.1212,0.1275,0.1221,0.1176,0.0869,0.0429,0.0104,-0.0224,-0.0223,-0.0342,-0.0341,-0.0341,-0.0317,-0.0293,-0.0347,-0.0347,-0.0348,-0.0348,-0.0348,0,0.0612,0.066,0.074,0.0844,0.0941,0.0992,0.1127,0.1206,0.1324,0.1384,0.1404,0.1136,0.0842,0.05,0.0012,-0.0291,-0.0315,-0.0378,-0.0346,-0.0345,-0.0344,-0.0321,-0.0352,-0.0353,-0.0354,-0.0355,0,0,0.0614,0.0684,0.0735,0.0894,0.0986,0.1134,0.1226,0.134,0.1417,0.1478,0.1475,0.141,0.0977,0.0625,0.0208,-0.007,-0.0134,-0.0119,-0.0082,0.0006,0.001,-0.029,-0.0247,0,0,0,0,0]}],[{"header":{"parameterUnit":"m.s-1","parameterCategory":2,"la1":30.2991,"la2":30.254,"lo1":-89.0895,"lo2":-89.0444,"dy":0.0017,"dx":0.0017,"nx":28,"ny":28,"refTime":"2025-04-26T09:00:00:Z","depth":"4","parameterNumber":2,"parameterNumberName":"U-component_of_CURRENTS"},"data":[0,0,0,0,0,0,0,0,0,0,0,0,0,0,0,0,0,0,0,0,0,0,0,0,0,0,0,0,0,0,0,0,0,0,0,0,0,0,0,0,0,0,0,0,0,0,0,0,0,0,0,0,0,0,0,0,0,0,0.1297,0.1297,0,0.137,0.1371,0.1372,0.1428,0.1428,0.1429,0.1429,0.15,0.1502,0.1503,0,0,0,0,0,0,0,0,0,0,0,0,0,0.1226,0.1227,0.1297,0.1298,0.1298,0.137,0.1371,0.1372,0.1428,0.1428,0.1429,0.1429,0.15,0.1502,0.1503,0,0,0,0,0,0,0,0,0,0,0,0,0,0.1274,0.1228,0.1297,0.1334,0.1338,0.137,0.1371,0.1372,0.1428,0.1428,0.1429,0.143,0.1499,0.1502,0.1504,0.1503,0,0,0.151,0.1511,0,0,0,0,0,0,0,0,0.1272,0.1277,0.1328,0.1332,0.1336,0.139,0.1372,0.1416,0.1427,0.1394,0.1429,0.143,0.1462,0.1468,0.1481,0.1507,0.151,0.1511,0.1512,0.1513,0.1514,0,0,0,0,0,0,0,0.1268,0.1274,0.1326,0.1329,0.1334,0.1355,0.1362,0.1381,0.1424,0.1397,0.1401,0.1408,0.1465,0.1479,0.1483,0.1511,0.1511,0.1513,0.1514,0.1515,0.1631,0.1633,0,0,0,0,0,0,0.1256,0.1271,0.1324,0.1328,0.1304,0.1355,0.1364,0.1373,0.1424,0.1432,0.1408,0.1411,0.1474,0.148,0.1486,0.1573,0.1513,0.1515,0.1516,0.1629,0.1631,0.1633,0,0,0,0,0,0,0.1254,0.126,0.1321,0.1301,0.131,0.1356,0.1365,0.1374,0.1415,0.1432,0.144,0.1444,0.1475,0.1482,0.1537,0.1573,0.1516,0.1518,0.1627,0.163,0.1632,0.1694,0,0,0,0,0,0,0.1252,0.1259,0.1278,0.13,0.1311,0.1358,0.1365,0.1374,0.1416,0.1422,0.1465,0.1471,0.1476,0.1534,0.154,0.1575,0.152,0.1625,0.1628,0.1632,0.169,0.1699,0.1706,0,0,0,0,0,0.1249,0.1268,0.1279,0.1286,0.133,0.1359,0.1367,0.1401,0.1418,0.1441,0.1479,0.1471,0.1559,0.1538,0.1544,0.1581,0.1623,0.1627,0.1631,0.1686,0.1697,0.1706,0,0,0,0,0,0,0.1252,0.1276,0.1288,0.1315,0.1343,0.1368,0.1398,0.1416,0.1464,0.148,0.1495,0.1504,0.1565,0.1564,0.1541,0.1624,0.1589,0.1594,0.1629,0.1639,0.1647,0.1652,0.1521,0,0,0,0,0,0.1258,0.128,0.1302,0.1329,0.1344,0.1376,0.1399,0.142,0.1455,0.1479,0.151,0.1545,0.158,0.1604,0.1631,0.1676,0.1684,0.1703,0.1712,0.1718,0.1728,0.1763,0.1775,0.1646,0.1646,0.1646,0,0,0.1267,0.1284,0.1299,0.1332,0.1359,0.1389,0.1393,0.1434,0.1474,0.1477,0.1553,0.1576,0.1599,0.1656,0.1682,0.1664,0.1764,0.1723,0.1729,0.1735,0.1768,0.1781,0.1792,0.1649,0.1649,0.1648,0,0,0.1284,0.1312,0.1333,0.1357,0.1397,0.1419,0.1435,0.1477,0.1516,0.1577,0.1595,0.1643,0.1696,0.1722,0.1739,0.1807,0.1805,0.1818,0.1866,0.19,0.1911,0.192,0.1964,0.1976,0.1822,0.1822,0.1822,0,0.1293,0.1323,0.1346,0.1371,0.1401,0.1434,0.1468,0.1508,0.1568,0.1609,0.1612,0.1714,0.1728,0.1798,0.1824,0.1825,0.1849,0.1825,0.191,0.192,0.1928,0.197,0.1983,0.1826,0.1825,0.1825,0.1825,0,0.132,0.1353,0.1371,0.1415,0.1451,0.1488,0.1536,0.1591,0.164,0.1679,0.1769,0.1797,0.1859,0.1868,0.187,0.1944,0.1943,0.1915,0.1883,0.1945,0.1985,0.1998,0.1831,0.1829,0.1828,0.1827,0,0,0.1311,0.1375,0.1385,0.1416,0.148,0.1511,0.1588,0.1664,0.173,0.1791,0.1874,0.1932,0.1956,0.1977,0.1987,0.2013,0.2094,0.1998,0.1998,0.2037,0.219,0.2077,0.2079,0.2083,0.2086,0.2087,0.22,0,0.1328,0.1377,0.1414,0.1481,0.1513,0.1576,0.1647,0.1724,0.1797,0.1886,0.1933,0.2014,0.1996,0.2038,0.2065,0.2091,0.2128,0.2067,0.2128,0.213,0.2017,0.209,0.2094,0.2209,0.2212,0.2214,0.2216,0,0.1342,0.1375,0.1435,0.1521,0.1545,0.1598,0.1725,0.1794,0.1916,0.1976,0.206,0.2103,0.2184,0.2143,0.2229,0.2197,0.2207,0.2209,0.2213,0.2092,0.2038,0.2131,0.2239,0.2237,0.2235,0.2234,0.2232,0,0.132,0.1395,0.1446,0.1474,0.1572,0.1633,0.1704,0.1828,0.1902,0.2045,0.2111,0.2206,0.227,0.23,0.2329,0.2293,0.2405,0.235,0.226,0.2253,0.2293,0.2281,0.2403,0.2403,0.2403,0.2403,0.2402,0,0.1314,0.1358,0.1445,0.1472,0.1553,0.1635,0.1743,0.1833,0.1964,0.2048,0.2159,0.2229,0.2311,0.2382,0.2381,0.2375,0.2457,0.2288,0.2276,0.2319,0.2309,0.2303,0.229,0.2407,0.2406,0.2405,0.2404,0,0.1273,0.1331,0.139,0.1498,0.154,0.1602,0.1746,0.1819,0.1961,0.2074,0.2127,0.228,0.2375,0.2445,0.251,0.2435,0.244,0.2414,0.2495,0.2483,0.2253,0.2242,0.232,0.2316,0.2314,0.2312,0.231,0,0.1247,0.1275,0.1389,0.1427,0.1479,0.1581,0.165,0.18,0.1873,0.2078,0.2119,0.228,0.2361,0.238,0.2452,0.2479,0.2434,0.2426,0.2296,0.2265,0.2247,0.2239,0.2232,0.2306,0.2305,0.2304,0.2304,0,0.1191,0.1245,0.1292,0.1371,0.1444,0.1514,0.1625,0.1664,0.1837,0.1977,0.2067,0.2131,0.2242,0.2302,0.2358,0.2355,0.2421,0.2397,0.24,0.2278,0.2249,0.2232,0.2228,0.2295,0.2296,0.2297,0.2297,0,0.1147,0.1162,0.1235,0.1296,0.138,0.1423,0.1492,0.1578,0.1667,0.1883,0.1908,0.2076,0.2217,0.2241,0.2285,0.2295,0.2236,0.2132,0.2148,0.2159,0.2052,0.1988,0.196,0,0,0,0,0,0.1087,0.1102,0.1154,0.121,0.1289,0.134,0.1465,0.1538,0.1696,0.1712,0.1805,0.1899,0.1983,0.2075,0.2051,0.2214,0.2246,0.2175,0.2133,0.2245,0.2256,0.2144,0,0,0,0,0,0,0.1053,0.1092,0.1117,0.1125,0.1151,0.1225,0.1298,0.1405,0.1426,0.1593,0.1656,0.1779,0.1897,0.1977,0.2012,0.2039,0.1972,0.2281,0.2277,0.2239,0.2249,0.2257,0.2146,0,0,0,0,0]},{"header":{"parameterUnit":"m.s-1","parameterCategory":2,"la1":30.2991,"la2":30.254,"lo1":-89.0895,"lo2":-89.0444,"dy":0.0017,"dx":0.0017,"nx":28,"ny":28,"refTime":"2025-04-26T09:00:00:Z","depth":"4","parameterNumber":3,"parameterNumberName":"V-component_of_CURRENTS"},"data":[0,0,0,0,0,0,0,0,0,0,0,0,0,0,0,0,0,0,0,0,0,0,0,0,0,0,0,0,0,0,0,0,0,0,0,0,0,0,0,0,0,0,0,0,0,0,0,0,0,0,0,0,0,0,0,0,0,0,0.005,0.0049,0,0.0013,0.0013,0.0012,-0.0013,-0.0013,-0.0013,-0.0013,-0.0061,-0.0063,-0.0064,0,0,0,0,0,0,0,0,0,0,0,0,0,0.0072,0.0072,0.005,0.0049,0.0049,0.0013,0.0013,0.0012,-0.0013,-0.0013,-0.0013,-0.0013,-0.0061,-0.0063,-0.0064,0,0,0,0,0,0,0,0,0,0,0,0,0,0.005,0.0072,0.005,0.0034,0.0032,0.0013,0.0013,0.0012,-0.0013,-0.0013,-0.0013,-0.0013,-0.0061,-0.0062,-0.0064,-0.0076,0,0,-0.007,-0.0071,0,0,0,0,0,0,0,0,0.0051,0.0049,0.0036,0.0035,0.0033,0.0006,0.0003,-0.0017,-0.0013,0.0002,-0.0013,-0.0013,-0.0039,-0.0042,-0.0052,-0.0078,-0.008,-0.007,-0.0071,-0.0072,-0.0073,0,0,0,0,0,0,0,0.0053,0.005,0.0033,0.0036,0.0034,0.002,0.0017,-0.0001,-0.0019,0.0001,-0.0001,-0.0002,-0.004,-0.005,-0.0053,-0.0081,-0.007,-0.0072,-0.0073,-0.0074,-0.013,-0.013,0,0,0,0,0,0,0.0063,0.0052,0.0035,0.0032,0.0044,0.002,0.0016,0.0013,-0.0019,-0.0023,-0.0002,-0.0003,-0.0047,-0.0051,-0.0055,-0.0069,-0.0072,-0.0074,-0.0075,-0.013,-0.013,-0.013,0,0,0,0,0,0,0.0063,0.0061,0.0036,0.0043,0.0039,0.002,0.0016,0.0013,0.0003,-0.002,-0.0025,-0.0007,-0.0047,-0.0052,-0.0073,-0.0071,-0.0075,-0.0077,-0.0129,-0.013,-0.013,-0.0097,0,0,0,0,0,0,0.0064,0.0062,0.0062,0.0044,0.0039,0.0026,0.0017,0.0012,0.0003,0.0001,-0.0027,-0.0031,-0.0047,-0.007,-0.0075,-0.0073,-0.0078,-0.0129,-0.0129,-0.013,-0.0098,-0.0097,-0.0096,0,0,0,0,0,0.0065,0.0067,0.0062,0.006,0.004,0.0026,0.0022,0.0007,0.0003,-0.0002,-0.0022,-0.003,-0.0078,-0.0072,-0.0077,-0.0076,-0.0128,-0.0129,-0.013,-0.0099,-0.0097,-0.0096,0,0,0,0,0,0,0.0075,0.0064,0.0059,0.0056,0.0043,0.0023,0.0019,0.0009,-0.0011,-0.0011,-0.0035,-0.0041,-0.0059,-0.0075,-0.0068,-0.0096,-0.0104,-0.0106,-0.0079,-0.0078,-0.0076,-0.0067,-0.008,0,0,0,0,0,0.0078,0.0078,0.0063,0.0061,0.0056,0.0038,0.0031,0.0021,0.0003,-0.0005,-0.0026,-0.0048,-0.0067,-0.0077,-0.0098,-0.0113,-0.0136,-0.0117,-0.0116,-0.0114,-0.0111,-0.0148,-0.015,-0.0133,-0.0133,-0.0133,0,0,0.0082,0.0077,0.0076,0.0064,0.0053,0.005,0.0033,0.0025,0.0023,-0.0007,-0.002,-0.0044,-0.0071,-0.0088,-0.0097,-0.01,-0.0132,-0.0115,-0.0114,-0.0112,-0.0149,-0.0151,-0.0152,-0.0134,-0.0133,-0.0133,0,0,0.0093,0.0085,0.0089,0.0082,0.0072,0.006,0.006,0.0039,0.0029,0.0012,-0.0009,-0.0033,-0.0063,-0.0082,-0.0095,-0.0101,-0.0125,-0.0107,-0.0091,-0.0127,-0.0128,-0.013,-0.0162,-0.0167,-0.0105,-0.0105,-0.0105,0,0.01,0.0103,0.0087,0.0091,0.0091,0.0067,0.0073,0.0058,0.0033,0.0028,0.0012,-0.0036,-0.006,-0.0078,-0.0082,-0.0096,-0.0121,-0.0091,-0.0124,-0.0126,-0.0128,-0.0161,-0.0167,-0.0104,-0.0104,-0.0104,-0.0104,0,0.0112,0.0118,0.0121,0.012,0.0114,0.0116,0.0098,0.009,0.0073,0.0057,0.0031,-0.001,-0.0035,-0.0051,-0.007,-0.0093,-0.0107,-0.0118,-0.0124,-0.0128,-0.0163,-0.0169,-0.0102,-0.0102,-0.0103,-0.0103,0,0,0.0125,0.013,0.0132,0.0147,0.0133,0.0136,0.013,0.0121,0.0128,0.0085,0.0082,0.0031,0.0008,-0.0009,-0.0038,-0.0076,-0.0117,-0.0101,-0.0104,-0.0127,-0.0196,-0.018,-0.0185,-0.0134,-0.0135,-0.0135,-0.0214,0,0.0143,0.0166,0.0158,0.0182,0.0195,0.0179,0.0182,0.0171,0.015,0.0139,0.0087,0.0072,0.0026,0.0018,-0.0029,-0.0088,-0.0132,-0.0095,-0.0195,-0.0198,-0.0177,-0.0191,-0.0138,-0.0219,-0.0221,-0.0222,-0.0223,0,0.016,0.0177,0.0203,0.0232,0.0235,0.0243,0.0254,0.0254,0.0228,0.0211,0.0175,0.0138,0.0084,0.0044,-0.0071,-0.0044,-0.0118,-0.0175,-0.018,-0.0179,-0.0193,-0.0216,-0.0235,-0.0234,-0.0233,-0.0232,-0.0231,0,0.0188,0.0213,0.0241,0.0248,0.0266,0.0279,0.0287,0.0276,0.0291,0.0259,0.0262,0.0186,0.016,0.0052,-0.0061,-0.0068,-0.0192,-0.0213,-0.0273,-0.0273,-0.0278,-0.0275,-0.0303,-0.0303,-0.0303,-0.0303,-0.0303,0,0.0214,0.024,0.0261,0.0279,0.0324,0.0319,0.0358,0.0354,0.0355,0.0377,0.0306,0.0302,0.016,0.0078,-0.0044,-0.017,-0.0179,-0.0273,-0.0292,-0.0263,-0.0258,-0.0283,-0.0279,-0.0306,-0.0305,-0.0305,-0.0304,0,0.0238,0.025,0.029,0.0321,0.0339,0.0369,0.0417,0.0447,0.0437,0.0461,0.0458,0.039,0.0286,0.014,-0.0028,-0.0128,-0.0261,-0.0307,-0.0257,-0.0272,-0.0327,-0.0321,-0.0385,-0.0386,-0.0386,-0.0386,-0.0386,0,0.0249,0.0271,0.0324,0.0358,0.0376,0.0425,0.0466,0.0484,0.0517,0.0517,0.0534,0.0454,0.0388,0.0175,0.0006,-0.0219,-0.0256,-0.0331,-0.0345,-0.0323,-0.0336,-0.033,-0.0324,-0.0386,-0.0386,-0.0386,-0.0386,0,0.027,0.0287,0.0322,0.0395,0.0447,0.051,0.0567,0.0604,0.0625,0.0619,0.0608,0.0498,0.0382,0.02,0.0031,-0.0137,-0.0286,-0.0333,-0.0335,-0.0348,-0.0325,-0.0336,-0.033,-0.0386,-0.0386,-0.0386,-0.0386,0,0.0284,0.0311,0.0361,0.0428,0.0499,0.0575,0.0605,0.065,0.0684,0.0684,0.068,0.0546,0.0468,0.0243,0.0084,-0.0072,-0.0125,-0.0192,-0.0203,-0.0204,-0.0132,-0.0074,-0.0075,0,0,0,0,0,0.0295,0.0333,0.0394,0.047,0.0544,0.059,0.0666,0.069,0.0717,0.0724,0.0705,0.0599,0.0378,0.0284,0.0132,0.006,-0.0167,-0.0127,-0.0253,-0.0387,-0.0387,-0.0331,0,0,0,0,0,0,0.0304,0.0358,0.0393,0.0495,0.0556,0.0643,0.0697,0.0717,0.0722,0.0723,0.0617,0.0551,0.0343,0.047,0.0128,0.0079,-0.0025,-0.0232,-0.0236,-0.0387,-0.0387,-0.0387,-0.033,0,0,0,0,0]}]]